Volver al catálogo

COSMOS 81

ActivoMilitarLEO
NORAD 1571·PAYLOAD·🇷🇺 Russia

Lanzado Sep 3, 1965 desde Baikonur Cosmodrome

Loading…

Próximos Pases (próximas 24 horas)

TLE

ActualizadoSource: Space-Track

Época: Sep 14, 2026, 10:40 UTC

1 01571U 65070B   26257.44459036 -.00000071  00000-0  15532-3 0  9997
2 01571  56.0623 321.0507 0086833 207.5171 167.5610 12.48869146783774

Sigue COSMOS 81 en tiempo real con AllMySat

Download on the App Store